Temperature
21 20 19 19 19 19 21 22 22 22 22 23 23 22 21 21 21 21 21 20 20 20 20 20 20 20 20 20 20 20 20 20 19 19 19 19 19 19 19 19 19 19 19 19 18 18 18 18 18
21 20 19 19 19 20 21 22 22 23 23 23 23 22 21 20 20 21 21 20 20 20 20 20 20 20 20 20 19 19 19 19 19 19 19 19 19 19 19 19 19 19 19 18 18 18 18 18 18
20 20 19 19 20 20 22 23 23 23 23 23 23 22 21 21 21 21 21 20 20 20 20 20 20 20 20 20 20 19 19 19 19 19 19 19 19 19 19 19 19 19 19 18 18 18 18 18 18
20 20 20 20 21 22 22 23 23 23 24 23 22 21 21 21 21 21 21 20 20 20 20 20 20 20 20 20 20 19 19 19 19 19 19 19 19 19 19 19 19 19 18 18 18 18 18 18 18
20 20 20 20 22 22 23 23 23 23 23 23 22 21 21 21 21 21 21 20 20 20 20 20 20 20 20 20 20 20 20 20 19 19 19 19 19 19 19 19 19 18 18 18 18 18 18 18 18
21 20 20 21 22 23 23 24 23 23 23 22 22 21 20 21 21 21 21 20 20 20 20 20 20 20 20 20 20 20 20 20 19 19 19 19 19 19 19 19 19 18 18 18 18 18 18 18 18
21 20 21 22 22 23 24 24 24 23 23 22 22 20 20 21 21 21 21 20 20 20 20 20 20 20 20 20 20 20 19 19 19 19 19 19 19 19 19 19 19 18 18 18 18 18 18 18 18
22 20 22 22 22 23 24 24 24 24 23 23 23 21 21 21 21 21 20 20 20 20 20 20 20 20 20 20 20 19 19 19 19 19 19 19 19 19 19 19 19 18 18 18 18 18 18 18 18
22 20 21 22 23 23 24 24 24 24 23 23 23 22 22 21 21 21 20 20 20 20 20 20 20 20 20 20 19 19 19 19 19 19 19 19 19 19 18 19 19 18 18 18 18 18 18 18 18
22 20 22 23 24 24 24 24 24 24 23 22 22 22 22 21 21 21 21 20 20 20 20 20 20 20 20 20 19 20 19 19 19 19 19 19 19 19 18 18 18 18 18 18 18 18 18 18 18
21 22 23 24 25 25 24 24 24 23 22 22 22 22 21 21 21 21 21 21 21 21 20 20 20 20 20 20 20 20 19 19 19 19 19 19 19 19 18 18 18 18 18 18 18 18 18 18 18
22 23 24 25 25 25 25 24 24 23 24 24 24 23 22 21 21 21 21 21 21 21 20 20 20 20 20 20 20 20 19 19 19 19 19 19 19 19 18 18 18 18 18 18 18 18 18 18 18
23 24 25 25 25 25 25 24 24 23 24 24 23 22 22 22 21 21 21 21 21 21 21 20 20 20 20 20 20 19 19 19 19 19 19 19 19 19 18 18 18 18 18 18 18 18 18 18 18
24 24 25 25 25 25 24 24 24 23 24 23 23 22 22 22 22 21 21 21 21 21 21 20 20 20 20 20 20 19 19 19 19 19 19 19 19 19 19 18 18 18 18 18 18 18 18 18 18
25 24 24 24 25 25 24 24 23 24 23 23 22 22 22 22 22 22 22 22 22 21 21 20 20 20 20 20 20 19 19 19 19 19 19 19 19 19 19 18 18 18 18 18 18 18 18 18 18
24 23 24 25 25 25 24 23 24 24 23 22 22 22 22 22 22 22 22 22 21 21 21 21 20 20 20 20 20 20 19 19 19 19 19 19 19 19 19 18 18 18 18 18 18 18 18 18 18
23 23 24 24 25 25 24 23 23 23 23 22 22 22 22 22 22 22 22 22 22 21 21 21 21 20 20 20 20 19 19 19 19 19 19 19 19 19 19 18 18 18 18 18 18 18 18 18 18
23 23 24 24 24 24 23 23 23 23 22 22 22 22 22 22 22 22 22 22 21 21 21 21 21 20 20 20 20 19 19 19 19 19 19 19 19 19 19 19 18 18 18 18 18 18 18 18 18
24 24 23 24 24 24 23 23 23 22 22 22 22 22 22 22 22 22 22 21 21 21 21 21 21 20 20 20 20 20 19 19 19 19 19 19 19 19 19 18 18 18 18 18 18 17 17 18 17
24 23 23 23 24 24 23 22 23 22 22 22 22 22 22 22 22 22 22 21 21 21 21 21 21 20 20 20 20 19 19 19 19 19 19 19 19 19 18 18 18 18 18 18 18 18 18 17 17
24 23 23 23 23 23 23 23 22 22 22 22 22 22 22 22 22 22 22 22 21 21 21 21 21 21 20 20 20 19 19 19 19 19 19 19 19 18 18 18 18 18 18 18 18 18 18 17 17
23 24 24 24 22 21 23 22 22 21 21 21 22 22 22 22 22 22 22 22 22 21 21 21 21 21 20 20 20 20 20 19 19 19 19 19 19 18 18 18 18 18 18 18 18 18 17 17 17
24 24 24 23 22 21 21 21 21 21 21 21 21 22 22 22 22 22 22 22 22 21 21 21 21 21 20 20 20 20 20 19 19 19 19 19 18 18 18 18 18 18 18 18 17 17 17 17 17
24 23 22 20 20 21 21 21 21 20 21 21 22 22 22 22 22 22 22 22 22 21 21 21 21 20 20 20 19 19 19 19 19 19 19 18 18 18 18 18 18 18 18 17 17 17 17 17 17
23 22 21 22 20 21 21 21 21 21 21 22 22 22 22 22 22 22 22 22 21 21 21 21 20 20 20 20 19 19 19 19 19 19 18 18 18 18 18 18 18 18 18 17 17 17 17 17 17
22 22 21 22 21 20 20 20 21 22 22 22 22 22 22 22 22 22 22 22 22 21 21 21 21 21 20 20 19 19 19 19 19 18 18 18 18 18 18 18 17 17 17 17 17 17 17 17 17
23 21 21 19 20 21 20 20 21 22 21 21 21 22 22 22 22 22 22 22 22 21 21 21 21 21 20 20 19 19 19 18 18 18 18 18 18 18 18 18 17 17 17 17 17 17 17 17 17
23 20 18 19 20 21 21 21 21 22 21 21 20 21 21 22 22 22 22 22 22 21 21 21 21 21 20 20 19 19 19 19 18 18 18 18 18 18 18 18 17 17 17 17 17 17 17 16 16
22 21 19 17 19 20 21 21 22 21 21 20 20 21 21 22 22 22 22 22 21 21 21 21 21 20 20 20 19 19 19 19 19 18 18 18 18 17 17 17 17 17 17 17 17 16 16 16 16
23 21 19 21 20 18 19 21 22 20 20 20 20 21 22 22 22 22 22 22 21 21 21 21 21 20 20 20 19 19 19 19 18 18 18 18 18 17 17 17 17 17 17 16 16 16 16 16 16
Wind_Speed
8 7 3 1 2 4 2 3 1 2 2 2 3 5 5 3 2 2 1 6 6 7 8 10 12 12 12 13 13 13 13 12 12 12 11 12 14 14 13 13 13 13 13 12 12 11 11 10 10
7 5 1 1 4 3 3 2 1 1 2 2 4 4 5 3 2 4 3 5 7 7 7 10 12 12 12 12 12 12 12 11 11 11 11 12 14 13 13 13 12 12 12 12 11 11 10 10 9
6 3 1 3 2 2 2 1 2 1 1 1 3 4 3 2 2 3 4 8 7 6 8 10 12 12 12 12 12 11 11 11 11 11 11 12 13 12 12 11 11 11 11 11 10 10 9 9 9
3 1 2 3 1 2 3 2 1 2 3 4 3 4 3 2 2 4 7 8 9 6 8 10 12 13 13 12 11 11 11 11 10 10 10 11 11 11 11 10 10 10 9 9 9 9 8 8 8
1 2 4 3 2 2 1 2 1 2 2 3 4 4 3 3 5 8 7 8 9 7 7 10 12 12 12 11 11 10 10 10 10 9 9 10 9 9 9 8 8 8 8 7 8 7 7 7 7
2 3 3 2 3 2 0 0 2 3 4 3 4 3 2 2 5 6 6 7 8 7 6 8 11 11 11 11 10 10 10 9 9 9 9 9 9 8 8 7 6 6 6 6 6 6 6 6 6
2 3 1 0 1 2 0 1 2 3 4 2 3 4 1 1 3 5 6 7 7 6 6 5 7 8 9 9 9 9 9 9 9 8 8 8 8 7 6 5 5 4 4 4 4 5 5 5 5
2 2 1 0 1 1 0 1 2 3 3 3 4 5 3 3 6 8 8 8 7 6 5 4 5 6 6 6 8 8 8 8 8 7 7 7 6 6 5 4 4 3 3 4 4 4 4 4 5
2 3 1 3 3 1 1 2 1 3 5 3 2 3 5 10 10 10 8 7 5 5 4 4 4 4 4 4 6 6 7 7 7 6 6 5 4 4 3 4 3 2 2 2 3 3 3 3 3
3 1 4 4 4 3 2 2 2 3 3 3 4 6 10 12 11 10 9 9 7 6 5 4 4 4 4 4 4 4 4 5 5 4 4 4 3 3 2 2 2 1 1 1 1 1 1 1 1
4 5 4 2 3 3 2 1 2 6 3 5 8 11 12 10 9 9 8 8 7 6 5 4 4 4 4 3 3 3 3 3 4 3 3 4 3 2 2 1 1 2 2 1 1 1 0 1 2
4 5 4 2 1 2 3 3 3 3 4 5 10 13 12 11 10 10 9 8 7 6 5 5 5 4 4 4 3 3 3 3 2 2 2 3 2 1 1 1 1 2 1 1 1 1 1 2 2
2 2 1 3 1 2 3 3 3 1 3 8 11 12 11 11 9 7 7 7 7 7 6 5 5 5 5 4 3 3 3 3 3 2 2 2 2 1 1 1 1 1 1 1 1 2 2 2 2
2 0 1 2 2 2 4 2 3 2 6 9 11 10 10 10 10 8 7 8 8 8 7 6 6 5 5 4 3 3 3 3 2 2 2 3 3 2 1 1 0 0 0 0 1 2 2 2 2
1 3 4 2 2 1 4 3 1 4 8 9 9 9 9 9 9 9 9 8 8 7 6 6 6 6 5 5 4 3 3 3 2 2 2 3 3 3 2 1 0 1 0 1 1 2 2 2 2
3 3 2 3 1 1 4 2 3 6 8 8 8 8 8 7 8 8 7 6 6 6 6 6 6 6 5 4 4 3 3 2 1 2 2 2 3 4 2 1 1 1 1 1 1 1 2 1 1
4 1 1 3 1 1 2 4 3 6 8 8 8 8 8 7 5 6 7 7 6 7 7 6 6 6 6 5 4 3 2 2 1 1 1 2 2 3 3 2 1 1 1 1 1 1 2 1 1
2 1 2 3 3 1 2 4 3 6 7 8 8 7 7 8 8 7 7 7 6 6 6 7 7 6 5 4 3 2 2 1 1 1 1 2 2 3 3 2 1 2 2 1 1 1 1 1 1
3 2 3 4 2 1 3 4 4 6 6 6 6 7 8 9 6 6 7 7 7 7 7 7 7 6 5 4 3 3 2 1 1 1 1 2 2 3 3 1 1 1 2 2 2 2 2 1 1
3 1 3 4 1 1 2 4 3 6 8 8 9 9 9 7 6 7 7 8 8 8 8 8 8 7 6 4 3 2 2 1 1 1 1 2 2 3 3 3 2 2 2 2 1 2 2 1 1
2 4 4 3 3 3 1 4 2 3 3 4 5 6 7 10 10 9 9 8 8 8 9 8 8 7 7 5 4 3 3 2 1 0 0 0 2 3 3 3 2 2 2 2 2 2 3 2 1
3 4 4 2 2 2 1 3 6 3 3 5 6 6 8 9 10 10 10 9 9 8 7 6 7 6 6 6 5 5 4 3 2 1 1 0 1 2 3 3 3 2 2 2 2 2 2 3 2
5 1 2 2 3 1 2 2 7 1 5 8 8 8 8 9 10 10 10 9 8 7 7 6 6 5 5 5 6 5 4 3 2 1 1 0 0 1 2 2 2 2 2 2 2 2 3 2 2
4 6 6 6 4 1 3 3 7 4 7 7 8 8 8 8 8 8 7 7 6 6 6 6 6 5 5 5 5 6 5 4 3 2 1 1 0 0 1 2 2 2 2 2 2 2 3 2 2
5 6 4 4 3 5 2 3 8 7 7 7 8 8 7 8 8 8 9 8 7 8 7 7 7 5 5 5 5 5 5 5 4 3 3 2 1 1 2 2 2 2 2 2 2 2 2 2 2
4 8 7 5 4 5 2 5 7 5 4 4 5 5 5 7 8 9 9 9 9 9 8 8 8 7 6 6 5 5 5 4 4 4 3 3 2 2 2 2 2 2 2 2 2 2 2 2 2
6 4 6 6 2 1 5 6 8 2 2 2 3 4 5 7 9 9 9 9 9 9 9 9 9 7 7 6 5 5 5 5 4 4 3 2 2 2 2 2 2 2 2 2 3 2 1 1 2
5 8 6 6 5 3 5 5 5 6 5 4 4 5 5 6 7 8 8 9 8 8 7 7 8 7 6 5 4 4 5 5 5 4 4 3 3 2 2 2 2 2 2 2 2 2 1 1 1
4 5 5 5 5 6 4 7 5 8 7 7 6 6 6 7 7 8 8 8 8 7 7 7 7 6 5 4 3 3 4 4 4 4 4 4 3 2 2 3 2 2 2 2 2 2 2 2 1
5 6 7 5 4 5 4 8 5 5 5 5 6 5 5 6 6 7 8 8 7 8 7 7 7 6 6 5 4 4 4 4 4 4 4 3 3 3 3 3 3 2 2 2 3 3 2 2 2
Wind_Direction
163 154 153 154 52 45 347 313 311 7 17 26 66 86 99 88 118 141 136 138 134 137 145 143 138 137 136 136 134 132 132 132 132 134 140 147 149 146 144 145 146 147 146 145 143 144 148 151 150
154 156 167 55 69 45 324 318 32 9 158 133 71 74 70 56 66 112 130 147 137 139 141 143 140 138 135 135 134 133 133 132 132 134 135 142 147 145 146 146 148 148 147 147 147 146 148 150 151
161 189 99 64 84 168 233 257 140 85 95 50 62 50 72 90 123 149 157 143 131 135 140 145 141 139 136 136 136 135 133 131 132 133 133 136 141 145 147 149 149 148 148 149 150 148 148 151 154
159 103 51 56 22 235 206 214 148 91 45 41 74 56 53 50 146 145 138 140 137 143 144 147 144 142 139 138 136 134 133 133 133 132 134 137 142 145 146 148 149 149 150 152 152 153 155 159 159
116 83 49 22 326 300 228 212 191 101 70 53 75 81 31 16 93 120 136 146 147 148 146 149 147 144 141 140 139 137 134 134 133 132 133 138 140 139 137 140 145 145 147 152 159 164 166 171 169
64 67 61 359 328 331 317 117 88 89 97 83 81 90 38 59 104 126 134 143 147 144 142 147 149 146 144 143 142 141 139 138 136 135 133 131 130 130 133 134 134 143 150 156 160 167 173 177 174
90 72 78 216 318 330 356 73 97 110 109 122 119 104 76 85 116 114 113 121 125 124 126 133 145 147 146 146 147 145 142 139 135 134 134 132 133 135 135 135 139 147 155 157 161 169 175 174 171
135 86 32 257 183 273 304 66 83 109 124 119 114 133 174 177 119 103 99 103 111 114 122 128 135 140 146 151 147 144 141 138 133 132 133 134 133 132 133 134 142 156 167 170 174 178 181 182 177
127 69 262 221 194 231 137 89 88 88 105 90 94 137 145 130 120 111 108 107 120 134 134 136 137 138 143 147 146 139 135 131 132 131 130 123 110 110 123 138 148 162 167 170 172 180 183 181 174
119 144 237 217 191 184 209 157 153 109 105 94 78 87 117 130 135 138 142 147 150 157 159 151 149 146 144 154 139 125 123 119 122 121 116 109 103 111 122 133 143 131 127 137 144 191 196 167 137
173 205 245 240 191 167 178 173 138 136 168 184 156 143 141 143 147 155 159 156 164 167 165 156 150 146 141 134 125 118 116 112 107 110 110 113 105 99 77 79 55 35 35 50 44 357 337 127 133
200 244 228 245 194 166 184 151 125 161 201 166 152 147 149 156 166 171 168 167 162 163 167 156 146 138 136 134 128 124 122 121 123 129 125 123 110 83 58 53 34 33 40 43 34 63 100 113 119
227 275 249 214 227 170 136 137 136 144 109 119 132 141 157 166 172 174 168 164 163 168 168 160 150 148 145 137 141 133 132 138 140 136 143 146 139 121 88 57 49 27 41 57 49 68 97 107 107
261 314 352 351 39 89 124 114 102 158 124 128 140 156 171 176 173 169 170 174 179 177 169 157 156 156 146 142 137 129 135 139 136 154 179 175 171 160 147 110 55 335 224 108 86 86 88 92 100
58 48 12 359 30 82 103 53 192 167 141 146 157 167 179 184 179 182 185 183 181 172 162 161 162 154 149 149 147 137 135 140 150 183 188 183 175 175 166 151 184 239 186 93 79 75 90 94 86
32 46 11 308 44 108 109 231 230 159 154 164 172 176 184 192 191 189 183 179 172 163 163 170 164 152 153 150 143 143 142 147 166 195 204 194 183 180 167 161 193 212 123 110 98 84 85 76 80
25 33 285 295 275 136 131 232 223 165 165 178 182 183 187 190 191 187 180 176 169 168 165 162 152 153 152 145 134 129 126 122 142 166 210 207 187 185 168 170 179 154 118 105 130 98 116 110 95
241 238 266 261 275 132 200 240 222 177 178 192 191 187 188 193 200 185 176 169 161 158 157 155 150 149 142 130 122 115 106 113 132 166 195 177 168 169 160 160 165 147 126 114 114 122 111 126 142
179 188 264 270 270 194 233 244 228 187 186 197 202 196 193 200 195 169 166 164 153 151 152 155 153 154 143 143 154 155 176 192 198 191 187 179 175 166 144 150 141 147 151 161 148 139 119 69 79
170 231 282 305 320 194 257 275 238 193 200 199 201 199 196 189 174 171 168 168 169 169 168 164 164 161 159 166 162 154 147 152 181 205 152 178 177 175 169 160 164 150 133 123 135 142 133 91 85
207 198 228 249 351 21 35 325 277 231 208 207 207 199 190 188 185 180 178 180 177 181 183 179 175 168 166 160 135 116 86 64 63 45 247 249 179 171 163 157 151 146 148 163 171 152 145 147 88
255 226 200 180 73 314 57 286 286 242 228 221 215 203 199 193 186 183 183 185 187 189 181 177 175 172 167 156 156 160 161 172 197 195 206 262 126 144 159 159 154 157 153 161 173 151 148 149 171
219 165 121 112 136 27 10 181 285 276 240 235 221 210 204 195 188 186 188 188 188 182 177 173 166 169 164 161 172 172 169 174 166 142 134 112 72 138 163 164 164 166 168 172 166 155 156 161 171
140 68 56 53 72 351 251 183 277 239 228 234 218 207 204 195 188 186 184 177 177 169 167 166 165 171 165 171 178 179 175 169 158 171 174 193 232 229 179 166 177 180 178 184 186 179 167 170 167
105 95 38 2 9 254 256 208 252 251 234 222 219 212 203 191 183 177 177 178 177 172 169 164 162 164 168 175 184 184 184 183 182 188 192 198 211 228 229 187 187 191 194 186 168 163 177 177 179
166 143 158 194 221 275 307 242 258 261 258 230 212 204 191 185 179 180 183 182 181 176 171 166 167 170 174 182 189 185 188 190 195 192 190 205 216 221 214 187 185 185 176 171 157 161 191 181 190
137 161 159 135 149 278 281 283 299 284 288 225 192 182 189 189 183 182 184 181 181 179 178 178 173 171 174 183 184 187 191 193 195 191 187 203 217 214 191 176 174 178 169 164 155 162 187 162 176
135 142 104 122 151 241 287 274 254 258 253 243 208 204 205 197 190 182 181 181 181 180 177 172 172 176 177 176 187 194 196 198 194 185 190 201 214 208 187 186 181 178 169 161 154 163 176 149 184
115 108 112 119 152 162 242 268 232 225 221 219 220 212 205 199 192 181 177 177 172 169 171 173 173 173 176 182 190 196 197 192 185 193 204 208 210 194 190 188 182 182 184 179 168 184 174 170 205
164 163 150 156 208 179 187 263 282 230 220 208 214 212 197 191 187 176 171 165 163 170 177 179 180 181 184 184 184 191 184 175 184 199 207 202 201 200 196 188 186 197 197 192 187 202 196 192 210
Height
1490 1491 1492 1493 1495 1501 1503 1495 1488 1487 1486 1486 1485 1485 1487 1489 1492 1497 1492 1491 1492 1493 1495 1496 1497 1498 1500 1501 1503 1504 1505 1507 1508 1508 1508 1508 1511 1514 1516 1518 1520 1522 1524 1525 1527 1528 1530 1531 1533
1491 1491 1494 1494 1500 1511 1505 1492 1490 1488 1487 1486 1486 1487 1487 1489 1490 1491 1491 1492 1494 1495 1496 1498 1499 1501 1502 1503 1505 1506 1508 1509 1509 1509 1508 1507 1510 1514 1518 1519 1521 1523 1524 1526 1527 1529 1530 1532 1533
1491 1492 1495 1496 1502 1508 1502 1491 1489 1487 1487 1487 1488 1489 1490 1491 1491 1491 1493 1493 1495 1497 1498 1500 1501 1503 1504 1506 1507 1508 1510 1511 1511 1511 1511 1510 1513 1516 1519 1521 1522 1524 1525 1527 1528 1530 1531 1532 1534
1492 1494 1495 1499 1502 1497 1493 1489 1487 1487 1488 1488 1488 1490 1491 1493 1493 1493 1494 1494 1496 1498 1500 1502 1503 1505 1506 1508 1509 1510 1512 1512 1513 1514 1514 1515 1517 1519 1520 1522 1523 1525 1526 1528 1529 1530 1531 1533 1534
1493 1495 1499 1504 1500 1493 1489 1488 1488 1488 1489 1490 1490 1492 1493 1494 1494 1494 1494 1495 1497 1499 1502 1504 1506 1507 1509 1510 1512 1513 1514 1515 1516 1516 1517 1518 1519 1521 1522 1523 1524 1525 1527 1528 1529 1531 1532 1533 1535
1495 1495 1506 1509 1501 1492 1489 1488 1488 1489 1491 1491 1492 1493 1495 1495 1495 1494 1494 1495 1498 1501 1503 1506 1508 1510 1511 1513 1514 1515 1516 1517 1518 1518 1519 1520 1521 1523 1523 1525 1525 1527 1528 1529 1530 1531 1532 1534 1535
1496 1499 1504 1504 1502 1495 1490 1489 1490 1490 1492 1492 1493 1494 1496 1496 1496 1495 1493 1494 1498 1502 1505 1508 1510 1512 1513 1515 1516 1517 1518 1519 1519 1520 1521 1522 1523 1524 1525 1526 1527 1528 1529 1530 1531 1532 1533 1534 1535
1495 1499 1503 1503 1501 1497 1491 1490 1491 1492 1493 1493 1494 1495 1496 1497 1497 1497 1496 1497 1501 1505 1507 1510 1512 1513 1515 1517 1518 1519 1520 1520 1521 1522 1523 1524 1525 1526 1527 1527 1528 1529 1529 1530 1531 1531 1533 1534 1535
1496 1503 1507 1501 1498 1494 1491 1491 1492 1493 1493 1493 1494 1495 1497 1498 1499 1499 1500 1502 1504 1507 1509 1511 1513 1515 1517 1518 1520 1521 1521 1522 1522 1524 1525 1526 1526 1527 1528 1528 1529 1529 1530 1530 1531 1531 1532 1533 1534
1496 1504 1499 1491 1491 1490 1490 1491 1492 1493 1494 1494 1495 1496 1497 1499 1500 1501 1502 1504 1506 1509 1511 1513 1515 1517 1518 1520 1521 1522 1523 1523 1524 1525 1526 1527 1528 1528 1529 1529 1529 1530 1530 1530 1530 1531 1532 1533 1534
1494 1496 1490 1488 1488 1489 1490 1491 1492 1493 1495 1494 1494 1496 1498 1500 1502 1503 1505 1506 1508 1511 1513 1515 1517 1519 1520 1521 1522 1523 1524 1525 1526 1527 1527 1528 1529 1529 1529 1530 1530 1530 1530 1530 1530 1530 1530 1532 1534
1493 1489 1488 1487 1487 1488 1490 1490 1492 1492 1493 1493 1494 1496 1499 1501 1502 1504 1506 1508 1510 1512 1514 1516 1518 1519 1521 1522 1524 1525 1525 1526 1527 1528 1529 1529 1530 1530 1530 1531 1531 1531 1531 1531 1530 1529 1530 1532 1534
1491 1489 1487 1487 1487 1488 1489 1490 1491 1493 1493 1494 1496 1498 1500 1501 1503 1506 1508 1510 1511 1513 1515 1517 1518 1520 1522 1523 1524 1525 1526 1527 1528 1529 1530 1530 1530 1531 1531 1531 1532 1532 1532 1531 1531 1530 1531 1533 1534
1490 1488 1488 1487 1487 1488 1489 1491 1492 1493 1494 1495 1497 1499 1501 1502 1504 1506 1508 1510 1511 1513 1516 1518 1519 1521 1522 1524 1525 1526 1527 1528 1529 1530 1531 1531 1531 1532 1532 1532 1533 1533 1533 1533 1532 1532 1533 1534 1535
1490 1491 1490 1489 1488 1490 1491 1495 1494 1493 1495 1496 1498 1500 1502 1504 1505 1506 1508 1510 1512 1514 1516 1518 1520 1521 1523 1524 1526 1527 1528 1529 1530 1531 1531 1532 1532 1533 1533 1533 1533 1533 1533 1533 1533 1533 1534 1534 1535
1492 1496 1501 1492 1489 1490 1495 1503 1493 1493 1495 1496 1498 1500 1502 1504 1505 1507 1509 1511 1513 1514 1516 1518 1520 1521 1523 1524 1526 1527 1529 1529 1530 1531 1532 1532 1533 1533 1533 1533 1534 1534 1534 1534 1534 1534 1534 1535 1536
1502 1507 1505 1497 1490 1491 1494 1499 1493 1493 1495 1496 1497 1499 1501 1503 1505 1507 1508 1510 1512 1514 1516 1517 1519 1521 1523 1525 1526 1528 1529 1530 1530 1531 1532 1532 1533 1533 1533 1533 1534 1534 1534 1534 1534 1534 1534 1535 1535
1508 1507 1504 1501 1492 1492 1495 1496 1492 1493 1494 1495 1496 1498 1500 1501 1503 1505 1507 1510 1512 1514 1515 1517 1519 1521 1523 1524 1526 1527 1528 1529 1530 1531 1532 1532 1533 1533 1533 1533 1533 1533 1534 1534 1534 1534 1534 1535 1535
1497 1501 1504 1498 1491 1494 1496 1496 1492 1492 1493 1494 1496 1497 1498 1499 1502 1504 1506 1509 1511 1513 1514 1516 1519 1520 1522 1524 1525 1526 1528 1529 1530 1531 1532 1532 1532 1533 1533 1533 1533 1533 1533 1533 1533 1533 1534 1534 1535
1496 1502 1502 1497 1491 1493 1497 1496 1490 1490 1491 1491 1492 1494 1495 1498 1500 1502 1505 1507 1509 1511 1513 1515 1517 1519 1522 1523 1525 1526 1527 1528 1529 1530 1531 1532 1532 1532 1533 1533 1532 1532 1532 1533 1533 1533 1533 1533 1534
1496 1500 1500 1500 1495 1494 1497 1500 1494 1490 1491 1492 1492 1493 1494 1496 1498 1500 1503 1505 1507 1509 1512 1514 1516 1518 1521 1523 1525 1526 1527 1528 1529 1530 1531 1531 1532 1532 1532 1532 1532 1532 1532 1532 1532 1533 1533 1533 1533
1499 1490 1492 1495 1504 1511 1505 1518 1499 1492 1491 1490 1490 1491 1492 1494 1496 1498 1500 1503 1506 1508 1511 1514 1516 1518 1520 1522 1523 1525 1526 1527 1528 1529 1530 1531 1531 1532 1532 1532 1532 1532 1532 1532 1532 1532 1532 1532 1532
1490 1487 1491 1496 1505 1512 1510 1517 1507 1494 1494 1488 1487 1488 1489 1491 1493 1496 1498 1501 1504 1507 1510 1512 1515 1517 1518 1521 1522 1524 1525 1526 1527 1528 1529 1530 1530 1531 1531 1531 1531 1531 1531 1531 1531 1531 1531 1531 1532
1484 1491 1497 1505 1512 1523 1514 1518 1512 1498 1489 1485 1484 1485 1486 1489 1491 1494 1497 1500 1503 1506 1508 1510 1513 1515 1518 1520 1522 1523 1524 1525 1526 1527 1528 1529 1529 1529 1530 1530 1530 1530 1530 1530 1530 1530 1530 1531 1531
1487 1503 1521 1524 1531 1527 1512 1514 1507 1485 1480 1480 1480 1481 1483 1486 1488 1491 1494 1497 1501 1503 1506 1509 1511 1514 1516 1519 1520 1522 1523 1524 1524 1525 1526 1527 1528 1528 1528 1529 1529 1529 1529 1529 1529 1529 1529 1529 1529
1489 1498 1521 1531 1533 1525 1513 1514 1495 1479 1477 1476 1477 1479 1481 1483 1486 1488 1491 1495 1498 1501 1504 1507 1509 1512 1515 1517 1518 1519 1521 1522 1523 1524 1525 1526 1526 1527 1527 1527 1527 1527 1528 1528 1528 1528 1528 1528 1528
1490 1497 1498 1516 1521 1526 1519 1505 1488 1477 1476 1475 1476 1477 1479 1480 1483 1486 1489 1493 1496 1499 1501 1504 1507 1509 1512 1514 1516 1517 1518 1520 1521 1522 1523 1524 1524 1525 1525 1526 1526 1526 1526 1526 1526 1526 1526 1526 1526
1481 1490 1506 1516 1528 1530 1518 1509 1500 1483 1479 1476 1475 1476 1477 1479 1482 1484 1487 1490 1493 1497 1500 1503 1505 1507 1510 1512 1514 1515 1517 1518 1519 1520 1521 1522 1522 1523 1523 1524 1524 1524 1524 1525 1525 1525 1525 1525 1525
1486 1493 1502 1514 1515 1527 1527 1511 1480 1477 1475 1474 1473 1474 1475 1477 1479 1482 1485 1488 1491 1494 1497 1500 1503 1505 1507 1509 1512 1513 1515 1516 1517 1518 1519 1520 1521 1521 1521 1522 1522 1522 1523 1523 1523 1523 1523 1523 1523
1477 1485 1496 1507 1513 1517 1520 1506 1471 1471 1470 1471 1472 1472 1473 1475 1477 1480 1483 1486 1489 1492 1495 1498 1500 1502 1505 1507 1510 1511 1513 1514 1515 1516 1517 1518 1518 1519 1519 1520 1520 1520 1521 1521 1521 1521 1522 1522 1521